Forrest, Australia

9:27 AM AWST on January 23, 2017 (GMT +0800)
Forrest

Weather History for YFRT - January, 2013

Change the Weather History Date:

Friday, January 25, 2013

  Actual Average Record
Temperature  
Mean Temperature 69 °F -  
Max Temperature 83 °F 89 °F - ()
Min Temperature 55 °F 60 °F - ()
Cooling Degree Days 4    
Growing Degree Days 19 (Base 50)    
Moisture  
Dew Point 47 °F    
Average Humidity 45    
Maximum Humidity 72    
Minimum Humidity 15    
Precipitation  
Precipitation 0.00 in 0.02 in - ()
Sea Level Pressure  
Sea Level Pressure 30.10 in    
Wind  
Wind Speed 12 mph ()    
Max Wind Speed 18 mph    
Max Gust Speed 30 mph    
T = Trace of Precipitation, MM = Missing Value Source: Averaged Metar Reports

Daily Weather History Graph

Daily Weather History Graph

Search for Another Location

Airport or City:

Trip Planner

Search our weather history database for the weather conditions in past years. The results will help you decide how hot, cold, wet, or windy it might be!

Date:

Astronomy

Jan. 25, 2013 Rise Set
Actual Time 4:48 AM AWST 6:31 PM AWST
Civil Twilight 4:21 AM AWST 6:57 PM AWST
Nautical Twilight 3:49 AM AWST 7:29 PM AWST
Astronomical Twilight 3:16 AM AWST 8:02 PM AWST
Moon 4:58 PM AWST (1/25) 2:54 AM AWST (1/25)
Length of Visible Light 14h 35m
Length of Day
13h 43m
Waxing Gibbous, 96% of the Moon is Illuminated
Jan 25
Waxing Gibbous
Jan 27
Full
Feb 3
Last Quarter
Feb 10
New
Feb 18
First Quarter

Hourly Weather History & Observations

Time (AWST) Temp. Dew Point Humidity Pressure Visibility Wind Dir Wind Speed Gust Speed Precip Events Conditions
12:00 AM 62 °F 53 °F 66% 30.05 in - South 17.3 mph - -  
12:00 AM 62.6 °F 53.6 °F 72% 30.06 in - South 17.3 mph - N/A   Unknown
1:00 AM 60.8 °F 51.8 °F 72% 30.06 in - South 11.5 mph - N/A   Unknown
2:00 AM 59 °F 49 °F 61% 30.07 in - South 10.4 mph - -  
2:00 AM 59.0 °F 50.0 °F 72% 30.06 in - South 10.4 mph - N/A   Unknown
3:00 AM 58 °F 48 °F 61% 30.07 in - South 9.2 mph - -  
3:00 AM 57.2 °F 48.2 °F 72% 30.09 in - South 9.2 mph - N/A   Unknown
4:00 AM 55.4 °F 46.4 °F 72% 30.09 in - SSW 10.4 mph - N/A   Unknown
5:00 AM 57 °F 47 °F 61% 30.10 in - South 9.2 mph - -  
5:00 AM 57.2 °F 48.2 °F 72% 30.12 in - South 9.2 mph - N/A   Unknown
6:00 AM 62 °F 49 °F 52% 30.12 in - SSE 9.2 mph - -  
6:00 AM 60.8 °F 48.2 °F 63% 30.12 in - SSE 9.2 mph - N/A   Unknown
7:00 AM 66.2 °F 46.4 °F 49% 30.12 in - SE 18.4 mph - N/A   Unknown
8:00 AM 68 °F 47 °F 35% 30.14 in - SE 15.0 mph - -  
8:00 AM 68.0 °F 46.4 °F 46% 30.15 in - SE 15.0 mph - N/A   Unknown
9:00 AM 70 °F 46 °F 31% 30.13 in - SSE 13.8 mph - -  
9:00 AM 69.8 °F 46.4 °F 43% 30.15 in - SSE 13.8 mph - N/A   Unknown
10:00 AM 73.4 °F 46.4 °F 38% 30.12 in - SE 15.0 mph - N/A   Unknown
11:00 AM 76 °F 45 °F 22% 30.11 in - SSE 12.7 mph - -  
11:00 AM 75.2 °F 44.6 °F 34% 30.12 in - SSE 12.7 mph 24.2 mph N/A   Unknown
12:00 PM 77 °F 45 °F 22% 30.08 in - ESE 17.3 mph - -  
12:00 PM 77.0 °F 44.6 °F 32% 30.09 in - ESE 17.3 mph - N/A   Unknown
1:00 PM 78.8 °F 44.6 °F 30% 30.06 in - SE 16.1 mph - N/A   Unknown
2:00 PM 83 °F 43 °F 15% 30.05 in - South 12.7 mph - -  
2:00 PM 82.4 °F 42.8 °F 25% 30.06 in - South 12.7 mph - N/A   Unknown
3:00 PM 80 °F 43 °F 17% 30.04 in - SE 15.0 mph - -  
3:00 PM 80.6 °F 42.8 °F 26% 30.06 in - SE 15.0 mph - N/A   Unknown
4:00 PM 78.8 °F 42.8 °F 28% 30.04 in - SSE 15.0 mph - N/A   Unknown
5:00 PM 77 °F 44 °F 20% 30.06 in - SE 16.1 mph - -  
5:00 PM 77.0 °F 42.8 °F 29% 30.06 in - SE 16.1 mph - N/A   Unknown
5:20 PM 77.0 °F 42.8 °F 29% 30.06 in - SSE 17.3 mph 29.9 mph N/A   Unknown
6:00 PM 73 °F 45 °F 25% 30.08 in - SSE 17.3 mph - -  
6:00 PM 73.4 °F 44.6 °F 36% 30.09 in - SSE 17.3 mph - N/A   Unknown
7:00 PM 69.8 °F 48.2 °F 46% 30.12 in - SE 18.4 mph - N/A   Unknown
8:00 PM 66 °F 48 °F 41% 30.14 in - SE 16.1 mph - -  
8:00 PM 66.2 °F 48.2 °F 52% 30.15 in - SE 16.1 mph - N/A   Unknown
9:00 PM 64 °F 49 °F 47% 30.14 in - SE 16.1 mph - -  
9:00 PM 64.4 °F 48.2 °F 56% 30.15 in - SE 16.1 mph - N/A   Unknown
10:00 PM 60.8 °F 48.2 °F 63% 30.15 in - SE 9.2 mph - N/A   Unknown
11:00 PM 59 °F 47 °F 53% 30.14 in - SSE 8.1 mph - -  
11:00 PM 59.0 °F 46.4 °F 63% 30.15 in - SSE 8.1 mph - N/A   Unknown